This is the latest recevied weather packets stored in our database for station/object XQ6AK-15. If no packets are shown the sender has not sent any weather packets the latest 10 day(s).
| Time | Temp. | Humidity | Pressure | Rain* | Wind** | Luminosity | Snow |
|---|---|---|---|---|---|---|---|
| 1788096014 | 8.33° C | 99% | 1011.5 hPa | 0 mm | - | 34 W/m² | - |
| 1788095713 | 8.33° C | 99% | 1011.7 hPa | 0 mm | - | 36 W/m² | - |
| 1788095408 | 8.33° C | 99% | 1011.5 hPa | 0 mm | - | 32 W/m² | - |
| 1788095103 | 8.33° C | 99% | 1011.4 hPa | 0 mm | - | 25 W/m² | - |
| 1788094796 | 8.33° C | 99% | 1011.4 hPa | 0 mm | - | 30 W/m² | - |
| 1788094492 | 8.33° C | 99% | 1011.5 hPa | 0 mm | - | 31 W/m² | - |
| 1788094190 | 8.33° C | 99% | 1011.5 hPa | 0 mm | - | 32 W/m² | - |
| 1788093885 | 8.33° C | 99% | 1011.6 hPa | 0 mm | - | 30 W/m² | - |
| 1788093581 | 8.33° C | 99% | 1011.5 hPa | 0 mm | - | 28 W/m² | - |
| 1788093278 | 8.33° C | 99% | 1011.5 hPa | 0 mm | - | 22 W/m² | - |
| 1788092975 | 8.33° C | 99% | 1011.6 hPa | 0 mm | - | 28 W/m² | - |
| 1788092675 | 7.78° C | 99% | 1011.4 hPa | 0 mm | - | 23 W/m² | - |
| 1788092370 | 7.78° C | 99% | 1011.5 hPa | 0 mm | - | 12 W/m² | - |
| 1788092065 | 7.78° C | 99% | 1011.5 hPa | 0 mm | - | 15 W/m² | - |
| 1788091760 | 7.78° C | 99% | 1011.3 hPa | 0 mm | - | 13 W/m² | - |
| 1788091455 | 7.78° C | 99% | 1011.2 hPa | 0 mm | - | 10 W/m² | - |
| 1788091152 | 7.78° C | 99% | 1011.3 hPa | 0 mm | - | 12 W/m² | - |
| 1788090848 | 7.78° C | 99% | 1011.3 hPa | 0 mm | - | 8 W/m² | - |
| 1788090543 | 7.78° C | 99% | 1011.3 hPa | 0 mm | - | 6 W/m² | - |
| 1788090239 | 7.22° C | 99% | 1011.2 hPa | 1.27 mm | - | 4 W/m² | - |
| 1788089934 | 7.22° C | 99% | 1011.5 hPa | 1.27 mm | - | 3 W/m² | - |
| 1788089629 | 7.22° C | 99% | 1011.5 hPa | 0 mm | - | 1 W/m² | - |
| 1788089325 | 6.67° C | 99% | 1011.5 hPa | 0 mm | - | 0 W/m² | - |
| 1788089020 | 6.67° C | 99% | 1011.5 hPa | 0 mm | - | 0 W/m² | - |
| 1788088716 | 6.67° C | 99% | 1011.4 hPa | 0 mm | - | 0 W/m² | - |
* Rain latest hour (hover to see other rain measurements)
** Current wind speed in m/s (hover to see current wind gust speed)